Change the Weather History Date:

Saturday, May 11, 2013

  Actual Average Record
Temperature  
Mean Temperature 66 °F 60 °F  
Max Temperature 78 °F 68 °F 82 °F (2012)
Min Temperature 53 °F 52 °F 42 °F (2010)
Degree Days  
Heating Degree Days 0    
Month to date heating degree days 22  
Since 1 July heating degree days 2192  
Cooling Degree Days 1    
Month to date cooling degree days 30  
Year to date cooling degree days 43  
Growing Degree Days 16 (Base 50)    
Moisture  
Dew Point 53 °F    
Average Humidity 68    
Maximum Humidity 93    
Minimum Humidity 43    
Precipitation  
Precipitation 0.00 in - 0.00 in (2015)
Month to date precipitation 0.00  
Year to date precipitation 1.45  
Since 1 July precipitation 7.43  
Sea Level Pressure  
Sea Level Pressure 30.14 in    
Wind  
Wind Speed 6 mph (WNW)    
Max Wind Speed 18 mph    
Max Gust Speed 21 mph    
Visibility 9 miles    
Events      
T = Trace of Precipitation, MM = Missing Value Source: NWS Daily Summary

Daily Weather History Graph

Daily Weather History Graph

Search for Another Location

Airport or City:

Trip Planner

Search our weather history database for the weather conditions in past years. The results will help you decide how hot, cold, wet, or windy it might be!

Date:

Astronomy

May. 11, 2013 Rise Set
Actual Time 6:02 AM PDT 8:08 PM PDT
Civil Twilight 5:33 AM PDT 8:37 PM PDT
Nautical Twilight 4:57 AM PDT 9:12 PM PDT
Astronomical Twilight 4:19 AM PDT 9:51 PM PDT
Moon 7:14 AM PDT (5/11) 9:52 PM PDT (5/11)
Length of Visible Light 15h 04m
Length of Day
14h 05m
Waxing Crescent, 3% of the Moon is Illuminated
May 11
Waxing Crescent
May 17
First Quarter
May 24
Full
May 31
Last Quarter
Jun 8
New

Hourly Weather History & Observations

Time (PDT) Temp. Dew Point Humidity Pressure Visibility Wind Dir Wind Speed Gust Speed Precip Events Conditions
12:54 AM 55.0 °F 51.1 °F 86% 30.20 in 9.0 mi Calm Calm - N/A   Overcast
1:54 AM 55.0 °F 51.1 °F 86% 30.19 in 8.0 mi NNW 3.5 mph - N/A   Overcast
2:54 AM 55.0 °F 51.1 °F 86% 30.17 in 7.0 mi Calm Calm - N/A   Overcast
3:54 AM 54.0 °F 51.1 °F 90% 30.15 in 10.0 mi SSW 3.5 mph - N/A   Overcast
4:54 AM 54.0 °F 51.1 °F 90% 30.14 in 7.0 mi Calm Calm - N/A   Overcast
5:54 AM 54.0 °F 51.1 °F 90% 30.14 in 7.0 mi Calm Calm - N/A   Overcast
6:54 AM 55.0 °F 51.1 °F 86% 30.15 in 8.0 mi NE 4.6 mph - N/A   Overcast
7:54 AM 55.9 °F 52.0 °F 87% 30.14 in 7.0 mi ESE 4.6 mph - N/A   Overcast
8:38 AM 57.2 °F 51.8 °F 82% 30.12 in 8.0 mi Calm Calm - N/A   Scattered Clouds
8:54 AM 60.1 °F 53.1 °F 78% 30.15 in 8.0 mi Calm Calm - N/A   Clear
9:54 AM 64.0 °F 53.1 °F 67% 30.14 in 9.0 mi Calm Calm - N/A   Clear
10:54 AM 64.0 °F 55.0 °F 73% 30.14 in 7.0 mi West 6.9 mph - N/A   Clear
11:54 AM 69.1 °F 55.9 °F 63% 30.13 in 9.0 mi WNW 3.5 mph - N/A   Clear
12:54 PM 72.0 °F 55.9 °F 57% 30.13 in 10.0 mi WNW 6.9 mph - N/A   Clear
1:54 PM 77.0 °F 54.0 °F 45% 30.12 in 10.0 mi West 9.2 mph - N/A   Clear
2:54 PM 73.9 °F 55.0 °F 52% 30.10 in 10.0 mi West 11.5 mph - N/A   Clear
3:54 PM 73.0 °F 55.0 °F 53% 30.09 in 10.0 mi WNW 13.8 mph - N/A   Clear
4:54 PM 72.0 °F 54.0 °F 53% 30.09 in 10.0 mi WNW 13.8 mph - N/A   Clear
5:54 PM 71.1 °F 54.0 °F 55% 30.09 in 10.0 mi WNW 8.1 mph - N/A   Clear
6:54 PM 62.1 °F 53.1 °F 72% 30.09 in 10.0 mi NW 11.5 mph - N/A   Clear
7:54 PM 61.0 °F 53.1 °F 75% 30.11 in 10.0 mi WNW 10.4 mph - N/A   Clear
8:54 PM 57.0 °F 52.0 °F 83% 30.12 in 10.0 mi NW 8.1 mph - N/A   Clear
9:54 PM 55.9 °F 52.0 °F 87% 30.15 in 10.0 mi WNW 5.8 mph - N/A   Clear
10:54 PM 55.0 °F 52.0 °F 89% 30.17 in 9.0 mi NW 5.8 mph - N/A   Clear
11:54 PM 53.1 °F 50.0 °F 89% 30.17 in 10.0 mi NW 4.6 mph - N/A   Clear